Regional Weather Roundup
Issued by NWS New Orleans/Baton Rouge, LA

Home | Current Version | Previous Version | Graphics & Text | Print | Product List | Glossary Off
Versions: 1 2 3 4 5 6 7 8 9 10 11 12 13 14 15 16 17 18 19 20 21 22 23 24 25 26 27 28 29 30 31 32 33 34 35 36 37 38 39 40 41 42 43 44 45 46 47 48 49 50

026
ASUS44 KLIX 220910
RWRLIX
NEW ORLEANS REGIONAL WEATHER ROUNDUP
NATIONAL WEATHER SERVICE NEW ORLEANS LA
400 AM CDT TUE JUL 22 2014

NOTE: "FAIR" INDICATES FEW OR NO CLOUDS BELOW 12,000 FEET WITH NO
      SIGNIFICANT WEATHER AND/OR OBSTRUCTIONS TO VISIBILITY.
      SKY/WX - SKY CONDITION AND SIGNIFICANT WEATHER.
      TMP - AIR TEMPERATURE.     DP    - DEWPOINT TEMPERATURE.
      RH  - RELATIVE HUMIDITY.   PRES  - PRESSURE.
      HI  - HEAT INDEX.          WCI   - WIND CHILL INDEX.

*  THESE STATIONS ARE NOT NWS OR FAA STATIONS AND ARE NOT UNDER
   NWS QUALITY CONTROL.

LAZ038-040-048-061>063-065>067-069-221000-
SOUTHEAST LOUISIANA

CITY           SKY/WX    TMP DP  RH WIND       PRES   REMARKS
N.O. AUDUBON     N/A     78  77  97 MISG        N/A
N.O. INTL ARPT MOCLDY    77  73  87 CALM      29.99S
N.O. LAKEFRONT MOCLDY    82  73  74 N6        29.99F
N.O. DOWNTOWN* PTSUNNY   81  73  78 CALM      29.99F
SLIDELL        PTCLDY    73  71  93 CALM      29.99R
BATON ROUGE    CLEAR     73  70  90 NE3       29.99F
BOOTHVILLE     CLEAR     79  75  87 CALM      29.98F
BELLE CHASSE   PTCLDY    76  72  87 CALM      29.98S
BOGALUSA*        N/A     72  68  88 CALM      30.01S
GALLIANO*      NOT AVBL
NEW ROADS*       N/A     72  70  95 CALM      30.00S
GONZALES*      PTSUNNY   73  73 100 CALM      29.98F FOG
HAMMOND*       CLEAR     73  68  83 CALM      30.00F
HOUMA*         FOG       76  73  91 CALM      29.98F VSB 1/2
PORT FOURCHON* SUNNY     82  75  78 CALM      29.99F

$$

MSZ070-080>082-221000-
SOUTHERN MISSISSIPPI

CITY           SKY/WX    TMP DP  RH WIND       PRES   REMARKS
MCCOMB         PTCLDY    70  68  93 NW3       30.01F
GULFPORT       PTCLDY    77  70  79 W5        29.98S
BILOXI         MOCLDY    76  72  87 CALM      29.98S
PASCAGOULA     PTCLDY    73  72  96 CALM      29.98S

$$

COASTAL OBSERVATIONS
LAKE AND NEARSHORE STATIONS

STATION/POSITION TIME  TEMP    WIND        PRES    WAVE
                       AIR SEA DIR/SP/G            HT/PER
                 (UTC) (F)     (DEG/KT/KT) (MB)    (FT/S)
PASCAGOULA       0900   78     310/  4/  6 1014.5
WAVELAND YACHT   0900   77     280/  3/  4 1014.7
GRAND ISLE       0900   81 85  220/  3/  3 1015.8
SOUTHWEST PASS   0900   82 85  240/  8/  9 1015.6
NEW CANAL        0900   81 84  190/  1/  2 1015.9
SHELL BEACH      0900   80 81  220/  4/  4 1015.3

OFFSHORE STATIONS

STATION/POSITION TIME  TEMP    WIND        PRES    WAVE
                       AIR SEA DIR/SP/G            HT/PER
                 (UTC) (F)     (DEG/KT/KT) (MB)    (FT/S)
64 S DAUPHIN ISL 0808   82 83  280/  6/  6 1015.2

$$




USA.gov is the U.S. government's official web portal to all federal, state and local government web resources and services.